GTI3952 KIAH-KTPA

Flight info

Callsign GTI3952
Flight time 1h 34m
Altitude 37000
Route GUMBY3 LLA LEV Y280 CHRGE RAYZZ3
Aircraft B764/H-SDE3FGHIM3RWXY/LB1

Departure

Time 2026-05-04 19:03
Airport George Bush Intercontinental Airport (KIAH)

Arrival

Time 2026-05-04 20:37
Airport Tampa International Airport (KTPA)
Time Latitude Longitude Altitude Speed Heading
2026-05-04 18:17 29.97702 -95.34497 100 ft 0 kts 171°
2026-05-04 18:41 29.97703 -95.34497 100 ft 1 kts 172°
2026-05-04 18:42 29.97718 -95.34500 100 ft 2 kts 176°
2026-05-04 18:42 29.97733 -95.34499 100 ft 2 kts 200°
2026-05-04 18:42 29.97746 -95.34491 100 ft 2 kts 216°
2026-05-04 18:42 29.97757 -95.34480 100 ft 2 kts 233°
2026-05-04 18:43 29.97765 -95.34464 100 ft 2 kts 251°
2026-05-04 18:43 29.97769 -95.34448 100 ft 1 kts 268°
2026-05-04 18:43 29.97769 -95.34441 100 ft 1 kts 273°
2026-05-04 18:43 29.97768 -95.34438 100 ft 0 kts 271°
2026-05-04 18:55 29.97769 -95.34446 100 ft 2 kts 270°
2026-05-04 18:55 29.97765 -95.34521 100 ft 6 kts 267°
2026-05-04 18:55 29.97762 -95.34574 100 ft 6 kts 266°
2026-05-04 18:56 29.97758 -95.34631 100 ft 7 kts 261°
2026-05-04 18:56 29.97740 -95.34687 100 ft 7 kts 245°
2026-05-04 18:56 29.97719 -95.34743 100 ft 7 kts 256°
2026-05-04 18:56 29.97734 -95.34791 100 ft 7 kts 314°
2026-05-04 18:57 29.97781 -95.34827 100 ft 9 kts 330°
2026-05-04 18:57 29.97841 -95.34865 100 ft 9 kts 332°
2026-05-04 18:57 29.97900 -95.34901 100 ft 10 kts 333°
2026-05-04 18:57 29.97961 -95.34937 100 ft 11 kts 333°
2026-05-04 18:58 29.98034 -95.34981 100 ft 12 kts 332°
2026-05-04 18:58 29.98115 -95.35031 100 ft 13 kts 331°
2026-05-04 18:58 29.98202 -95.35085 100 ft 14 kts 332°
2026-05-04 18:58 29.98296 -95.35145 100 ft 16 kts 331°
2026-05-04 18:59 29.98396 -95.35212 100 ft 17 kts 331°
2026-05-04 18:59 29.98504 -95.35279 100 ft 18 kts 332°
2026-05-04 18:59 29.98612 -95.35346 100 ft 16 kts 332°
2026-05-04 18:59 29.98710 -95.35407 100 ft 15 kts 332°
2026-05-04 19:00 29.98797 -95.35459 100 ft 13 kts 333°
2026-05-04 19:00 29.98869 -95.35509 100 ft 10 kts 311°
2026-05-04 19:00 29.98875 -95.35577 100 ft 7 kts 251°
2026-05-04 19:00 29.98857 -95.35617 100 ft 4 kts 241°
2026-05-04 19:01 29.98842 -95.35648 100 ft 4 kts 241°
2026-05-04 19:01 29.98835 -95.35662 100 ft 0 kts 241°
2026-05-04 19:01 29.98833 -95.35667 100 ft 2 kts 241°
2026-05-04 19:01 29.98817 -95.35699 100 ft 6 kts 240°
2026-05-04 19:02 29.98789 -95.35752 100 ft 7 kts 230°
2026-05-04 19:02 29.98751 -95.35763 100 ft 5 kts 159°
2026-05-04 19:02 29.98709 -95.35738 100 ft 12 kts 153°
2026-05-04 19:02 29.98450 -95.35580 100 ft 73 kts 152°
2026-05-04 19:03 29.97819 -95.35194 100 ft 130 kts 152°
2026-05-04 19:03 29.96861 -95.34609 107 ft 180 kts 151°
2026-05-04 19:03 29.95691 -95.33883 509 ft 199 kts 150°
2026-05-04 19:03 29.94619 -95.32953 1372 ft 198 kts 133°
2026-05-04 19:04 29.93721 -95.31632 1653 ft 227 kts 128°
2026-05-04 19:04 29.92747 -95.30049 2016 ft 253 kts 127°
2026-05-04 19:04 29.91704 -95.28365 2790 ft 263 kts 128°
2026-05-04 19:04 29.90648 -95.26691 3820 ft 261 kts 129°
2026-05-04 19:05 29.89561 -95.25026 4647 ft 268 kts 129°
2026-05-04 19:05 29.88429 -95.23257 5146 ft 285 kts 128°
2026-05-04 19:05 29.87285 -95.21410 5693 ft 286 kts 127°
2026-05-04 19:05 29.86140 -95.19502 6598 ft 288 kts 127°
2026-05-04 19:06 29.84999 -95.17689 7669 ft 284 kts 128°
2026-05-04 19:06 29.83833 -95.15818 8342 ft 295 kts 127°
2026-05-04 19:06 29.82743 -95.13793 9059 ft 304 kts 114°
2026-05-04 19:06 29.82248 -95.11430 9926 ft 306 kts 95°
2026-05-04 19:07 29.82122 -95.08991 10726 ft 312 kts 91°
2026-05-04 19:07 29.82052 -95.06390 10841 ft 343 kts 91°
2026-05-04 19:07 29.81957 -95.03518 11018 ft 372 kts 92°
2026-05-04 19:07 29.81843 -95.00520 11892 ft 379 kts 92°
2026-05-04 19:08 29.81812 -94.97469 12781 ft 386 kts 85°
2026-05-04 19:08 29.82022 -94.94365 13616 ft 393 kts 84°
2026-05-04 19:08 29.82227 -94.91202 14451 ft 401 kts 84°
2026-05-04 19:08 29.82438 -94.87985 15277 ft 408 kts 83°
2026-05-04 19:09 29.82649 -94.84725 16082 ft 416 kts 83°
2026-05-04 19:09 29.82864 -94.81385 16880 ft 423 kts 83°
2026-05-04 19:09 29.83080 -94.78002 17660 ft 430 kts 83°
2026-05-04 19:09 29.83312 -94.74544 18440 ft 436 kts 82°
2026-05-04 19:10 29.83558 -94.71072 19184 ft 443 kts 82°
2026-05-04 19:10 29.83805 -94.67542 19917 ft 449 kts 82°
2026-05-04 19:10 29.84059 -94.63895 20649 ft 456 kts 82°
2026-05-04 19:10 29.84311 -94.60259 21350 ft 462 kts 82°
2026-05-04 19:11 29.84567 -94.56550 22045 ft 468 kts 81°
2026-05-04 19:11 29.84824 -94.52802 22724 ft 475 kts 81°
2026-05-04 19:11 29.85084 -94.49005 23388 ft 481 kts 81°
2026-05-04 19:11 29.85347 -94.45147 24041 ft 487 kts 81°
2026-05-04 19:12 29.85614 -94.41218 24685 ft 493 kts 81°
2026-05-04 19:12 29.86137 -94.33227 25908 ft 507 kts 83°
2026-05-04 19:12 29.86110 -94.29125 26477 ft 515 kts 88°
2026-05-04 19:13 29.85995 -94.24978 27047 ft 521 kts 88°
2026-05-04 19:13 29.85876 -94.20843 27592 ft 527 kts 88°
2026-05-04 19:13 29.85748 -94.16581 28139 ft 533 kts 88°
2026-05-04 19:13 29.85617 -94.12305 28673 ft 538 kts 88°
2026-05-04 19:14 29.85483 -94.08011 29199 ft 544 kts 88°
2026-05-04 19:14 29.85534 -94.03682 29701 ft 544 kts 81°
2026-05-04 19:14 29.85950 -93.99355 30218 ft 547 kts 78°
2026-05-04 19:14 29.86408 -93.94950 30734 ft 552 kts 78°
2026-05-04 19:15 29.86869 -93.90561 31369 ft 553 kts 77°
2026-05-04 19:15 29.87328 -93.86205 32005 ft 553 kts 77°
2026-05-04 19:15 29.87794 -93.81786 32615 ft 554 kts 77°
2026-05-04 19:15 29.88257 -93.77399 33181 ft 554 kts 77°
2026-05-04 19:16 29.88713 -93.73064 33707 ft 554 kts 77°
2026-05-04 19:16 29.89175 -93.68666 34213 ft 554 kts 77°
2026-05-04 19:16 29.89635 -93.64274 34781 ft 552 kts 77°
2026-05-04 19:16 29.90094 -93.59878 35308 ft 551 kts 77°
2026-05-04 19:17 29.90543 -93.55553 35833 ft 548 kts 77°
2026-05-04 19:17 29.90997 -93.51176 36290 ft 546 kts 77°
2026-05-04 19:17 29.91444 -93.46864 36639 ft 547 kts 77°
2026-05-04 19:17 29.91891 -93.42522 36985 ft 546 kts 77°
2026-05-04 19:18 29.92336 -93.38194 37079 ft 547 kts 77°
2026-05-04 19:18 29.93224 -93.29509 37058 ft 545 kts 77°
2026-05-04 19:19 29.94102 -93.20872 37064 ft 545 kts 77°
2026-05-04 19:19 29.94981 -93.12163 37065 ft 546 kts 77°
2026-05-04 19:20 29.95849 -93.03502 37066 ft 543 kts 78°
2026-05-04 19:20 29.96560 -92.94905 37064 ft 544 kts 85°
2026-05-04 19:21 29.95612 -92.86231 37080 ft 549 kts 103°
2026-05-04 19:21 29.93459 -92.77788 37075 ft 550 kts 106°
2026-05-04 19:22 29.91203 -92.69369 37073 ft 550 kts 106°
2026-05-04 19:22 29.88914 -92.60953 37077 ft 549 kts 106°
2026-05-04 19:23 29.86630 -92.52603 37083 ft 550 kts 106°
2026-05-04 19:23 29.84324 -92.44208 37092 ft 550 kts 106°
2026-05-04 19:24 29.82008 -92.35799 37096 ft 550 kts 106°
2026-05-04 19:24 29.79695 -92.27424 37082 ft 549 kts 107°
2026-05-04 19:25 29.77383 -92.19078 37086 ft 550 kts 107°
2026-05-04 19:25 29.75053 -92.10689 37085 ft 549 kts 107°
2026-05-04 19:26 29.72714 -92.02291 37091 ft 550 kts 107°
2026-05-04 19:26 29.70375 -91.93918 37091 ft 550 kts 107°
2026-05-04 19:27 29.68034 -91.85556 37094 ft 549 kts 107°
2026-05-04 19:27 29.65695 -91.77225 37107 ft 550 kts 107°
2026-05-04 19:28 29.63333 -91.68836 37114 ft 550 kts 107°
2026-05-04 19:28 29.60979 -91.60503 37115 ft 550 kts 107°
2026-05-04 19:29 29.58617 -91.52155 37117 ft 550 kts 107°
2026-05-04 19:29 29.56250 -91.43816 37117 ft 550 kts 107°
2026-05-04 19:30 29.53874 -91.35465 37119 ft 549 kts 107°
2026-05-04 19:30 29.51496 -91.27129 37108 ft 550 kts 108°
2026-05-04 19:31 29.49088 -91.18713 37103 ft 550 kts 108°
2026-05-04 19:31 29.46715 -91.10438 37107 ft 544 kts 108°
2026-05-04 19:32 29.44356 -91.02236 37115 ft 539 kts 108°
2026-05-04 19:32 29.42009 -90.94099 37119 ft 533 kts 108°
2026-05-04 19:33 29.39672 -90.86015 37124 ft 534 kts 108°
2026-05-04 19:33 29.37334 -90.77950 37122 ft 535 kts 108°
2026-05-04 19:34 29.34986 -90.69868 37124 ft 534 kts 108°
2026-05-04 19:34 29.32636 -90.61802 37121 ft 534 kts 108°
2026-05-04 19:35 29.30276 -90.53722 37118 ft 534 kts 109°
2026-05-04 19:35 29.27933 -90.45718 37119 ft 535 kts 109°
2026-05-04 19:36 29.25570 -90.37667 37119 ft 534 kts 109°
2026-05-04 19:36 29.23193 -90.29591 37102 ft 534 kts 109°
2026-05-04 19:37 29.20830 -90.21577 37104 ft 535 kts 109°
2026-05-04 19:37 29.18459 -90.13560 37111 ft 535 kts 109°
2026-05-04 19:38 29.16435 -90.05386 37117 ft 534 kts 102°
2026-05-04 19:38 29.14813 -89.97155 37110 ft 534 kts 102°
2026-05-04 19:39 29.13135 -89.88869 37111 ft 535 kts 103°
2026-05-04 19:39 29.11450 -89.80624 37112 ft 534 kts 102°
2026-05-04 19:40 29.09754 -89.72358 37116 ft 537 kts 102°
2026-05-04 19:40 29.08042 -89.64050 37117 ft 539 kts 102°
2026-05-04 19:41 29.06324 -89.55743 37118 ft 540 kts 102°
2026-05-04 19:41 29.04597 -89.47422 37120 ft 542 kts 102°
2026-05-04 19:42 29.02842 -89.38989 37123 ft 545 kts 102°
2026-05-04 19:42 29.01086 -89.30585 37103 ft 546 kts 103°
2026-05-04 19:43 28.99313 -89.22124 37110 ft 548 kts 102°
2026-05-04 19:43 28.97529 -89.13640 37110 ft 550 kts 102°
2026-05-04 19:44 28.95726 -89.05097 37113 ft 552 kts 102°
2026-05-04 19:44 28.93924 -88.96573 37111 ft 550 kts 103°
2026-05-04 19:45 28.92125 -88.88103 37110 ft 547 kts 103°
2026-05-04 19:45 28.90338 -88.79713 37110 ft 544 kts 104°
2026-05-04 19:46 28.88552 -88.71366 37107 ft 543 kts 104°
2026-05-04 19:46 28.86364 -88.63103 37108 ft 544 kts 108°
2026-05-04 19:47 28.84073 -88.54883 37106 ft 543 kts 108°
2026-05-04 19:47 28.81788 -88.46667 37108 ft 544 kts 108°
2026-05-04 19:48 28.79497 -88.38435 37109 ft 544 kts 108°
2026-05-04 19:48 28.77211 -88.30241 37091 ft 543 kts 108°
2026-05-04 19:49 28.74913 -88.22026 37095 ft 544 kts 109°
2026-05-04 19:49 28.72612 -88.13821 37096 ft 544 kts 109°
2026-05-04 19:50 28.70323 -88.05681 37098 ft 544 kts 109°
2026-05-04 19:50 28.68014 -87.97491 37100 ft 544 kts 109°
2026-05-04 19:51 28.65700 -87.89307 37101 ft 544 kts 109°
2026-05-04 19:51 28.63382 -87.81126 37103 ft 544 kts 109°
2026-05-04 19:52 28.61054 -87.72934 37104 ft 544 kts 109°
2026-05-04 19:52 28.58723 -87.64752 37106 ft 544 kts 109°
2026-05-04 19:53 28.56386 -87.56569 37107 ft 544 kts 109°
2026-05-04 19:53 28.54050 -87.48407 37109 ft 544 kts 109°
2026-05-04 19:54 28.51717 -87.40281 37110 ft 544 kts 109°
2026-05-04 19:54 28.49370 -87.32123 37095 ft 543 kts 109°
2026-05-04 19:55 28.47004 -87.23921 37096 ft 543 kts 109°
2026-05-04 19:55 28.44661 -87.15820 37098 ft 544 kts 109°
2026-05-04 19:56 28.42300 -87.07673 37100 ft 543 kts 109°
2026-05-04 19:56 28.39944 -86.99560 37100 ft 539 kts 110°
2026-05-04 19:57 28.37603 -86.91526 37102 ft 535 kts 111°
2026-05-04 19:57 28.35287 -86.83599 37099 ft 532 kts 111°
2026-05-04 19:58 28.32954 -86.75638 37097 ft 533 kts 111°
2026-05-04 19:58 28.30618 -86.67659 37091 ft 533 kts 111°
2026-05-04 19:59 28.28298 -86.59699 37088 ft 533 kts 111°
2026-05-04 19:59 28.25981 -86.51773 37089 ft 533 kts 111°
2026-05-04 20:00 28.23640 -86.43780 37091 ft 533 kts 111°
2026-05-04 20:00 28.21311 -86.35853 37092 ft 533 kts 111°
2026-05-04 20:01 28.18973 -86.27911 37081 ft 532 kts 111°
2026-05-04 20:01 28.16634 -86.19986 37085 ft 533 kts 111°
2026-05-04 20:02 28.14278 -86.12025 37088 ft 533 kts 111°
2026-05-04 20:02 28.11917 -86.04064 37082 ft 534 kts 111°
2026-05-04 20:03 28.09572 -85.96172 37082 ft 533 kts 111°
2026-05-04 20:03 28.07206 -85.88230 37083 ft 533 kts 111°
2026-05-04 20:04 28.04826 -85.80263 37085 ft 533 kts 111°
2026-05-04 20:04 28.02452 -85.72331 37086 ft 533 kts 111°
2026-05-04 20:05 28.00089 -85.64455 37087 ft 533 kts 111°
2026-05-04 20:05 27.97694 -85.56493 37088 ft 533 kts 111°
2026-05-04 20:06 27.95310 -85.48585 37090 ft 533 kts 111°
2026-05-04 20:06 27.92930 -85.40710 37091 ft 533 kts 111°
2026-05-04 20:07 27.90533 -85.32793 37080 ft 533 kts 112°
2026-05-04 20:07 27.88293 -85.24819 37075 ft 535 kts 104°
2026-05-04 20:08 27.86878 -85.16585 37078 ft 536 kts 103°
2026-05-04 20:08 27.86191 -85.12505 37016 ft 517 kts 103°
2026-05-04 20:08 27.85533 -85.08586 36419 ft 504 kts 103°
2026-05-04 20:08 27.84887 -85.04759 34976 ft 506 kts 104°
2026-05-04 20:09 27.84226 -85.00856 33428 ft 507 kts 104°
2026-05-04 20:09 27.83578 -84.97018 32903 ft 501 kts 104°
2026-05-04 20:09 27.82907 -84.93079 32390 ft 520 kts 104°
2026-05-04 20:09 27.82229 -84.89084 31783 ft 523 kts 104°
2026-05-04 20:10 27.81611 -84.85058 31197 ft 522 kts 99°
2026-05-04 20:10 27.81435 -84.80979 30627 ft 520 kts 90°
2026-05-04 20:10 27.81585 -84.76894 30084 ft 520 kts 88°
2026-05-04 20:10 27.81762 -84.72821 29532 ft 518 kts 88°
2026-05-04 20:11 27.81946 -84.68805 28982 ft 515 kts 88°
2026-05-04 20:11 27.82132 -84.64796 28435 ft 511 kts 87°
2026-05-04 20:11 27.82318 -84.60826 27899 ft 507 kts 87°
2026-05-04 20:11 27.82505 -84.56845 27357 ft 503 kts 87°
2026-05-04 20:12 27.82687 -84.52951 26825 ft 499 kts 87°
2026-05-04 20:12 27.82869 -84.49058 26288 ft 495 kts 87°
2026-05-04 20:12 27.83048 -84.45193 25752 ft 491 kts 87°
2026-05-04 20:12 27.83225 -84.41358 25217 ft 487 kts 87°
2026-05-04 20:13 27.83399 -84.37568 24685 ft 483 kts 87°
2026-05-04 20:13 27.83572 -84.33778 24144 ft 479 kts 87°
2026-05-04 20:13 27.83741 -84.30054 23596 ft 476 kts 87°
2026-05-04 20:13 27.83908 -84.26348 23052 ft 472 kts 87°
2026-05-04 20:14 27.84073 -84.22658 22510 ft 468 kts 87°
2026-05-04 20:14 27.84234 -84.19048 21978 ft 464 kts 87°
2026-05-04 20:14 27.84394 -84.15426 21444 ft 460 kts 87°
2026-05-04 20:14 27.84551 -84.11860 20898 ft 450 kts 87°
2026-05-04 20:15 27.84703 -84.08397 20479 ft 439 kts 87°
2026-05-04 20:15 27.84853 -84.04939 20116 ft 432 kts 87°
2026-05-04 20:15 27.84999 -84.01565 19656 ft 428 kts 87°
2026-05-04 20:15 27.85141 -83.98258 19206 ft 424 kts 87°
2026-05-04 20:16 27.85284 -83.94913 18748 ft 420 kts 87°
2026-05-04 20:16 27.85425 -83.91662 18316 ft 415 kts 86°
2026-05-04 20:16 27.85672 -83.88429 17874 ft 411 kts 84°
2026-05-04 20:16 27.85940 -83.85242 17445 ft 407 kts 84°
2026-05-04 20:17 27.86203 -83.82071 17015 ft 404 kts 84°
2026-05-04 20:17 27.86461 -83.78916 16585 ft 400 kts 84°
2026-05-04 20:17 27.86716 -83.75794 16161 ft 396 kts 84°
2026-05-04 20:17 27.86966 -83.72723 15745 ft 393 kts 84°
2026-05-04 20:18 27.87213 -83.69672 15333 ft 389 kts 84°
2026-05-04 20:18 27.87456 -83.66659 14926 ft 386 kts 84°
2026-05-04 20:18 27.87698 -83.63658 14522 ft 383 kts 84°
2026-05-04 20:18 27.87939 -83.60652 14118 ft 379 kts 84°
2026-05-04 20:19 27.88175 -83.57709 13722 ft 376 kts 84°
2026-05-04 20:19 27.88407 -83.54807 13332 ft 373 kts 84°
2026-05-04 20:19 27.88638 -83.51900 12942 ft 370 kts 84°
2026-05-04 20:19 27.88868 -83.49001 12553 ft 366 kts 84°
2026-05-04 20:20 27.89094 -83.46156 12171 ft 363 kts 84°
2026-05-04 20:20 27.89318 -83.43324 11792 ft 361 kts 84°
2026-05-04 20:20 27.89541 -83.40487 11413 ft 359 kts 84°
2026-05-04 20:20 27.89761 -83.37687 11038 ft 357 kts 84°
2026-05-04 20:21 27.89981 -83.34887 10663 ft 355 kts 85°
2026-05-04 20:21 27.90197 -83.32123 10301 ft 352 kts 85°
2026-05-04 20:21 27.90610 -83.26826 10239 ft 323 kts 85°
2026-05-04 20:22 27.90801 -83.24361 10215 ft 310 kts 85°
2026-05-04 20:22 27.90986 -83.21973 10191 ft 297 kts 85°
2026-05-04 20:22 27.91162 -83.19698 10174 ft 290 kts 85°
2026-05-04 20:22 27.91383 -83.17431 10125 ft 290 kts 77°
2026-05-04 20:23 27.92103 -83.15331 10053 ft 289 kts 63°
2026-05-04 20:23 27.93008 -83.13275 9953 ft 289 kts 63°
2026-05-04 20:23 27.93890 -83.11263 9853 ft 288 kts 63°
2026-05-04 20:23 27.94788 -83.09231 9757 ft 287 kts 63°
2026-05-04 20:24 27.95684 -83.07210 9664 ft 287 kts 63°
2026-05-04 20:24 27.96573 -83.05207 9575 ft 287 kts 63°
2026-05-04 20:24 27.97462 -83.03203 9487 ft 286 kts 64°
2026-05-04 20:24 27.98028 -83.01052 9208 ft 288 kts 88°
2026-05-04 20:25 27.97729 -82.98852 8874 ft 280 kts 115°
2026-05-04 20:25 27.96834 -82.96906 8641 ft 284 kts 117°
2026-05-04 20:25 27.96153 -82.94789 8317 ft 284 kts 103°
2026-05-04 20:25 27.95814 -82.92608 8077 ft 281 kts 101°
2026-05-04 20:26 27.95448 -82.90455 7821 ft 278 kts 103°
2026-05-04 20:26 27.95066 -82.88341 7513 ft 271 kts 103°
2026-05-04 20:26 27.94685 -82.86289 7268 ft 262 kts 103°
2026-05-04 20:26 27.94311 -82.84298 7040 ft 260 kts 103°
2026-05-04 20:27 27.93936 -82.82327 6793 ft 258 kts 104°
2026-05-04 20:27 27.93560 -82.80355 6552 ft 255 kts 104°
2026-05-04 20:27 27.93184 -82.78390 6280 ft 254 kts 104°
2026-05-04 20:27 27.92814 -82.76459 5981 ft 245 kts 103°
2026-05-04 20:28 27.92466 -82.74644 5701 ft 236 kts 103°
2026-05-04 20:28 27.92107 -82.72803 5437 ft 240 kts 100°
2026-05-04 20:28 27.91754 -82.70957 5288 ft 236 kts 100°
2026-05-04 20:28 27.91411 -82.69165 5135 ft 235 kts 101°
2026-05-04 20:29 27.91063 -82.67358 5000 ft 233 kts 101°
2026-05-04 20:29 27.90719 -82.65572 4994 ft 232 kts 101°
2026-05-04 20:29 27.90249 -82.63833 4989 ft 236 kts 119°
2026-05-04 20:29 27.89097 -82.62524 5014 ft 238 kts 152°
2026-05-04 20:30 27.87498 -82.62059 4873 ft 240 kts 179°
2026-05-04 20:30 27.85838 -82.62101 4640 ft 239 kts 182°
2026-05-04 20:30 27.84187 -82.62154 4391 ft 239 kts 182°
2026-05-04 20:30 27.82513 -82.62212 4140 ft 239 kts 182°
2026-05-04 20:31 27.80850 -82.62273 3891 ft 240 kts 182°
2026-05-04 20:31 27.79186 -82.62266 3643 ft 239 kts 169°
2026-05-04 20:31 27.77730 -82.61536 3477 ft 230 kts 138°
2026-05-04 20:31 27.76707 -82.60173 3248 ft 226 kts 124°
2026-05-04 20:32 27.75787 -82.58728 3008 ft 223 kts 124°
2026-05-04 20:32 27.75147 -82.57223 2953 ft 207 kts 95°
2026-05-04 20:32 27.75370 -82.55689 2989 ft 196 kts 57°
2026-05-04 20:32 27.76368 -82.54786 2990 ft 186 kts 12°
2026-05-04 20:33 27.77664 -82.54726 3025 ft 189 kts 358°
2026-05-04 20:33 27.78973 -82.54755 2971 ft 186 kts
2026-05-04 20:33 27.80259 -82.54746 2981 ft 186 kts
2026-05-04 20:33 27.81573 -82.54725 2905 ft 191 kts
2026-05-04 20:34 27.82902 -82.54694 2647 ft 190 kts
2026-05-04 20:34 27.84210 -82.54656 2388 ft 185 kts
2026-05-04 20:34 27.85457 -82.54617 2195 ft 174 kts
2026-05-04 20:34 27.86645 -82.54577 1934 ft 167 kts
2026-05-04 20:35 27.87777 -82.54538 1708 ft 157 kts
2026-05-04 20:35 27.88824 -82.54501 1504 ft 149 kts
2026-05-04 20:35 27.89845 -82.54467 1269 ft 147 kts
2026-05-04 20:35 27.90879 -82.54459 1055 ft 149 kts
2026-05-04 20:36 27.91912 -82.54429 899 ft 146 kts
2026-05-04 20:36 27.92929 -82.54383 716 ft 148 kts
2026-05-04 20:36 27.93953 -82.54330 533 ft 148 kts
2026-05-04 20:36 27.94984 -82.54284 311 ft 149 kts
2026-05-04 20:37 27.96008 -82.54247 111 ft 149 kts
2026-05-04 20:37 27.97027 -82.54216 16 ft 136 kts
2026-05-04 20:37 27.97757 -82.54187 19 ft 74 kts
2026-05-04 20:37 27.98118 -82.54172 21 ft 29 kts
2026-05-04 20:38 27.98259 -82.54115 22 ft 12 kts 48°
2026-05-04 20:38 27.98253 -82.54053 24 ft 6 kts 147°
2026-05-04 20:38 27.98213 -82.54046 24 ft 7 kts 183°
2026-05-04 20:38 27.98151 -82.54050 23 ft 10 kts 182°
2026-05-04 20:39 27.98070 -82.54053 22 ft 13 kts 180°
2026-05-04 20:39 27.97970 -82.54056 21 ft 15 kts 182°
2026-05-04 20:39 27.97861 -82.54060 21 ft 16 kts 181°
2026-05-04 20:39 27.97731 -82.54064 21 ft 20 kts 181°
2026-05-04 20:40 27.97583 -82.54069 18 ft 19 kts 181°
2026-05-04 20:40 27.97515 -82.54015 18 ft 11 kts 99°
2026-05-04 20:40 27.97508 -82.53933 19 ft 9 kts 102°
2026-05-04 20:40 27.97484 -82.53873 20 ft 7 kts 121°
2026-05-04 20:41 27.97458 -82.53828 20 ft 6 kts 125°
2026-05-04 20:41 27.97428 -82.53781 20 ft 7 kts 125°
2026-05-04 20:41 27.97394 -82.53724 21 ft 10 kts 123°
2026-05-04 20:41 27.97372 -82.53682 21 ft 12 kts 119°
2026-05-04 20:42 27.97334 -82.53582 21 ft 15 kts 107°
2026-05-04 20:42 27.97314 -82.53458 22 ft 15 kts 96°
2026-05-04 20:42 27.97310 -82.53346 24 ft 13 kts 91°
2026-05-04 20:42 27.97307 -82.53238 25 ft 14 kts 91°
2026-05-04 20:43 27.97304 -82.53124 25 ft 14 kts 91°
2026-05-04 20:43 27.97302 -82.53032 25 ft 7 kts 92°
2026-05-04 20:43 27.97301 -82.53007 25 ft 1 kts 92°
2026-05-04 20:43 27.97300 -82.52960 25 ft 9 kts 92°
2026-05-04 20:44 27.97297 -82.52866 26 ft 14 kts 91°
2026-05-04 20:44 27.97294 -82.52734 28 ft 19 kts 90°
2026-05-04 20:44 27.97291 -82.52555 28 ft 24 kts 92°
2026-05-04 20:44 27.97284 -82.52371 29 ft 21 kts 91°
2026-05-04 20:45 27.97280 -82.52210 31 ft 18 kts 89°
2026-05-04 20:45 27.97329 -82.52148 31 ft 6 kts 11°
2026-05-04 20:45 27.97357 -82.52135 31 ft 2 kts 54°
2026-05-04 20:45 27.97362 -82.52110 31 ft 4 kts 86°
2026-05-04 20:46 27.97361 -82.52065 31 ft 5 kts 91°
2026-05-04 20:46 27.97361 -82.52054 31 ft 0 kts 91°